[[{"header":{"parameterUnit":"m.s-1","parameterCategory":2,"la1":30.2991,"la2":30.254,"lo1":-89.0895,"lo2":-89.0444,"dy":0.0017,"dx":0.0017,"nx":28,"ny":28,"refTime":"2026-02-09T03:00:00:Z","depth":"0","parameterNumber":2,"parameterNumberName":"U-component_of_CURRENTS"},"data":[0,0,0,0,0,0,0,0,0,0,0,0,0,0,0,0,0,0,0,0,0,0,0,0,0,0,0,0,0,0,0,0,0,0,0,0,0,0,0,0,0,0,0,0,0,0,0,0,0,0,0,0,0,0,0,0,0,0,-0.197,-0.197,0,-0.1894,-0.1893,-0.1891,-0.1824,-0.1825,-0.1825,-0.1825,-0.1636,-0.1631,-0.1626,0,0,0,0,0,0,0,0,0,0,0,0,0,-0.1826,-0.183,-0.197,-0.197,-0.197,-0.1895,-0.1893,-0.1891,-0.1824,-0.1825,-0.1825,-0.1825,-0.1638,-0.1632,-0.1626,0,0,0,0,0,0,0,0,0,0,0,0,0,-0.1825,-0.1831,-0.197,-0.1934,-0.1931,-0.1895,-0.1893,-0.189,-0.1824,-0.1825,-0.1825,-0.1825,-0.164,-0.1633,-0.1625,-0.1576,0,0,-0.1602,-0.1598,0,0,0,0,0,0,0,0,-0.1826,-0.1829,-0.194,-0.1937,-0.1933,-0.1877,-0.1773,-0.1783,-0.1824,-0.1855,-0.1825,-0.1825,-0.1712,-0.1699,-0.1673,-0.1567,-0.1559,-0.1601,-0.1596,-0.1593,-0.1591,0,0,0,0,0,0,0,-0.1826,-0.1831,-0.1931,-0.194,-0.1936,-0.1844,-0.1845,-0.1773,-0.1775,-0.1853,-0.185,-0.1856,-0.1708,-0.168,-0.1668,-0.1556,-0.1601,-0.1594,-0.159,-0.1587,-0.1542,-0.1545,0,0,0,0,0,0,-0.1867,-0.1833,-0.1933,-0.1929,-0.1889,-0.1848,-0.1848,-0.1887,-0.1778,-0.1765,-0.1856,-0.1853,-0.1693,-0.1677,-0.1661,-0.1711,-0.1593,-0.1586,-0.1582,-0.1538,-0.1542,-0.1546,0,0,0,0,0,0,-0.1864,-0.1878,-0.1936,-0.1883,-0.1886,-0.1853,-0.1895,-0.1886,-0.1865,-0.1784,-0.1766,-0.1847,-0.1693,-0.1671,-0.1639,-0.1699,-0.1583,-0.1576,-0.1534,-0.1539,-0.1544,-0.1738,0,0,0,0,0,0,-0.1861,-0.1878,-0.1897,-0.1889,-0.1891,-0.1943,-0.1896,-0.1885,-0.1873,-0.1869,-0.177,-0.1752,-0.1691,-0.1652,-0.1632,-0.1686,-0.157,-0.153,-0.1537,-0.1542,-0.1727,-0.1749,-0.1767,0,0,0,0,0,-0.1857,-0.1891,-0.1899,-0.191,-0.1928,-0.1945,-0.1937,-0.1904,-0.1873,-0.188,-0.1828,-0.1756,-0.1679,-0.1647,-0.1624,-0.1677,-0.1527,-0.1535,-0.1542,-0.1718,-0.1744,-0.1767,0,0,0,0,0,0,-0.1805,-0.1889,-0.1897,-0.1946,-0.1961,-0.1938,-0.1932,-0.1911,-0.1871,-0.1858,-0.1774,-0.1754,-0.1745,-0.1689,-0.1657,-0.1689,-0.16,-0.1603,-0.1742,-0.1766,-0.1785,-0.1782,-0.1563,0,0,0,0,0,-0.1817,-0.1883,-0.1923,-0.1955,-0.1974,-0.1953,-0.1946,-0.1934,-0.1909,-0.189,-0.1833,-0.1784,-0.1756,-0.1744,-0.169,-0.1696,-0.1629,-0.1726,-0.1746,-0.1763,-0.1749,-0.1732,-0.1749,-0.1571,-0.1571,-0.1571,0,0,-0.1796,-0.1855,-0.1882,-0.1951,-0.1952,-0.1989,-0.1947,-0.1958,-0.1978,-0.1874,-0.1868,-0.1825,-0.1767,-0.1784,-0.1779,-0.1749,-0.1784,-0.1773,-0.1788,-0.1763,-0.1741,-0.1758,-0.1773,-0.1576,-0.1575,-0.1574,0,0,-0.1805,-0.1855,-0.1919,-0.1954,-0.1997,-0.1999,-0.2014,-0.2016,-0.2011,-0.2008,-0.1958,-0.197,-0.1895,-0.1906,-0.1892,-0.199,-0.1872,-0.1976,-0.209,-0.2077,-0.209,-0.2101,-0.2053,-0.2058,-0.201,-0.201,-0.2011,0,-0.1771,-0.187,-0.1924,-0.1992,-0.2018,-0.2018,-0.2063,-0.2068,-0.2053,-0.2064,-0.2031,-0.1998,-0.1962,-0.2013,-0.2068,-0.2036,-0.1981,-0.2003,-0.2101,-0.2111,-0.2119,-0.2066,-0.2069,-0.2021,-0.2019,-0.2018,-0.2017,0,-0.1832,-0.1906,-0.194,-0.2049,-0.2082,-0.2116,-0.216,-0.2181,-0.2172,-0.2174,-0.2201,-0.2173,-0.2159,-0.2184,-0.215,-0.222,-0.2146,-0.211,-0.2037,-0.2148,-0.2086,-0.2086,-0.2035,-0.2032,-0.2029,-0.2026,0,0,-0.1756,-0.1951,-0.1956,-0.202,-0.2115,-0.2143,-0.2214,-0.2273,-0.2305,-0.2315,-0.2348,-0.2377,-0.2357,-0.2342,-0.2328,-0.2352,-0.2392,-0.227,-0.2265,-0.2215,-0.2324,-0.2234,-0.2223,-0.2363,-0.2364,-0.2365,-0.2263,0,-0.1773,-0.1922,-0.2007,-0.2102,-0.2176,-0.223,-0.2293,-0.2348,-0.2372,-0.2404,-0.2428,-0.2429,-0.2421,-0.2417,-0.2452,-0.2376,-0.2396,-0.242,-0.2227,-0.222,-0.2122,-0.2222,-0.2108,-0.2003,-0.2261,-0.2261,-0.2261,0,-0.1789,-0.19,-0.2021,-0.2167,-0.2198,-0.2241,-0.2336,-0.2392,-0.2468,-0.2484,-0.2527,-0.2506,-0.2554,-0.2512,-0.248,-0.2483,-0.2422,-0.2377,-0.2371,-0.2208,-0.2129,-0.193,-0.199,-0.1974,-0.2259,-0.2259,-0.2259,0,-0.1717,-0.1888,-0.1988,-0.2038,-0.2207,-0.2247,-0.2305,-0.2402,-0.2437,-0.2516,-0.2522,-0.2573,-0.2552,-0.2519,-0.2438,-0.2448,-0.2356,-0.2354,-0.222,-0.2211,-0.2033,-0.2007,-0.2042,-0.233,-0.233,-0.2331,-0.2331,0,-0.1712,-0.1773,-0.1958,-0.2011,-0.2081,-0.2212,-0.2264,-0.234,-0.2424,-0.245,-0.2535,-0.2533,-0.2546,-0.2495,-0.2439,-0.2311,-0.2352,-0.2237,-0.2189,-0.21,-0.2082,-0.199,-0.2012,-0.2327,-0.2328,-0.2328,-0.2329,0,-0.1606,-0.1753,-0.1851,-0.2021,-0.2057,-0.2092,-0.2194,-0.2228,-0.234,-0.2369,-0.2382,-0.2468,-0.2419,-0.24,-0.2325,-0.2277,-0.2135,-0.2126,-0.2006,-0.1947,-0.1829,-0.1865,-0.181,-0.176,-0.1979,-0.1977,-0.1974,0,-0.1554,-0.1607,-0.1788,-0.182,-0.1881,-0.1954,-0.199,-0.2141,-0.2177,-0.2303,-0.2292,-0.2305,-0.2273,-0.2156,-0.2079,-0.1967,-0.1996,-0.1811,-0.1841,-0.1813,-0.1819,-0.1863,-0.1829,-0.1682,-0.1677,-0.1673,-0.1671,0,-0.1397,-0.1472,-0.1562,-0.1652,-0.17,-0.1758,-0.1827,-0.1853,-0.2024,-0.2078,-0.2111,-0.2104,-0.2035,-0.19,-0.1797,-0.1724,-0.1772,-0.1731,-0.1739,-0.1625,-0.1635,-0.1564,-0.1746,-0.1638,-0.1641,-0.1644,-0.1645,-0.1647,-0.1204,-0.1234,-0.1363,-0.1418,-0.1496,-0.1536,-0.1506,-0.1605,-0.1661,-0.1683,-0.1848,-0.1763,-0.1749,-0.1598,-0.1532,-0.1412,-0.1512,-0.1378,-0.1431,-0.1483,-0.1431,-0.1532,-0.1356,-0.1357,-0.1358,-0.136,-0.1361,0,-0.0947,-0.104,-0.1095,-0.1192,-0.1207,-0.1319,-0.1364,-0.1302,-0.1294,-0.1332,-0.1355,-0.1343,-0.1276,-0.1257,-0.1203,-0.1137,-0.1135,-0.1127,-0.1178,-0.1163,-0.1258,-0.1241,-0.0987,-0.0987,-0.0987,-0.0987,-0.0987,-0.0987,-0.0818,-0.0834,-0.0908,-0.0878,-0.0934,-0.0882,-0.0868,-0.0815,-0.0783,-0.0699,-0.066,-0.0664,-0.0878,-0.112,-0.1092,-0.1032,-0.1042,-0.0992,-0.1057,-0.1145,-0.1174,-0.1201,-0.1192,-0.0932,-0.0932,-0.0896,-0.0896,-0.0896]},{"header":{"parameterUnit":"m.s-1","parameterCategory":2,"la1":30.2991,"la2":30.254,"lo1":-89.0895,"lo2":-89.0444,"dy":0.0017,"dx":0.0017,"nx":28,"ny":28,"refTime":"2026-02-09T03:00:00:Z","depth":"0","parameterNumber":3,"parameterNumberName":"V-component_of_CURRENTS"},"data":[0,0,0,0,0,0,0,0,0,0,0,0,0,0,0,0,0,0,0,0,0,0,0,0,0,0,0,0,0,0,0,0,0,0,0,0,0,0,0,0,0,0,0,0,0,0,0,0,0,0,0,0,0,0,0,0,0,0,0.0986,0.0988,0,0.112,0.1122,0.1124,0.12,0.12,0.12,0.12,0.1234,0.1234,0.1235,0,0,0,0,0,0,0,0,0,0,0,0,0,0.0779,0.0783,0.0986,0.0988,0.0989,0.112,0.1122,0.1124,0.12,0.12,0.12,0.1201,0.1233,0.1234,0.1235,0,0,0,0,0,0,0,0,0,0,0,0,0,0.0888,0.0784,0.0986,0.1042,0.1048,0.112,0.1122,0.1125,0.12,0.12,0.12,0.1201,0.1233,0.1234,0.1235,0.1239,0,0,0.1239,0.1239,0,0,0,0,0,0,0,0,0.0882,0.0896,0.1032,0.1038,0.1045,0.1142,0.1061,0.1157,0.12,0.1144,0.12,0.1201,0.1192,0.1197,0.1226,0.1241,0.1242,0.1239,0.124,0.124,0.124,0,0,0,0,0,0,0,0.0874,0.0891,0.1041,0.1033,0.1041,0.1054,0.107,0.108,0.1165,0.1149,0.1154,0.1167,0.1195,0.1224,0.1227,0.1243,0.1239,0.124,0.1241,0.1241,0.1253,0.1253,0,0,0,0,0,0,0.0856,0.0884,0.1037,0.1045,0.096,0.1058,0.1076,0.1112,0.1167,0.1176,0.1166,0.117,0.1222,0.1225,0.1228,0.1202,0.124,0.1241,0.1242,0.1253,0.1253,0.1252,0,0,0,0,0,0,0.0851,0.0869,0.1031,0.0964,0.0985,0.1061,0.1101,0.1115,0.1135,0.1181,0.1189,0.1171,0.1223,0.1226,0.1223,0.1205,0.1242,0.1243,0.1254,0.1253,0.1253,0.1171,0,0,0,0,0,0,0.0845,0.0868,0.088,0.0964,0.0989,0.1055,0.1101,0.1117,0.1142,0.1147,0.1188,0.1192,0.1223,0.1221,0.1224,0.1207,0.1244,0.1254,0.1253,0.1253,0.1174,0.1168,0.1162,0,0,0,0,0,0.0838,0.0845,0.088,0.0898,0.1007,0.1053,0.1067,0.1121,0.1141,0.1142,0.1169,0.1191,0.1219,0.1221,0.1225,0.1208,0.1255,0.1254,0.1253,0.1177,0.1169,0.1162,0,0,0,0,0,0,0.0737,0.0856,0.0896,0.0934,0.0983,0.1065,0.1065,0.1109,0.1136,0.113,0.1179,0.1185,0.1179,0.1204,0.1205,0.1212,0.1243,0.1243,0.1184,0.1177,0.1171,0.1161,0.1245,0,0,0,0,0,0.0727,0.0779,0.087,0.0892,0.0912,0.0987,0.101,0.1048,0.1088,0.1102,0.114,0.1167,0.1182,0.1185,0.1207,0.12,0.1217,0.1196,0.119,0.1184,0.1181,0.1214,0.121,0.125,0.125,0.125,0,0,0.0688,0.0762,0.0785,0.0876,0.0916,0.0921,0.1001,0.1021,0.1023,0.1096,0.1099,0.1143,0.1177,0.1178,0.1178,0.1191,0.1172,0.1183,0.1178,0.1178,0.1212,0.1209,0.1205,0.1249,0.1249,0.1249,0,0,0.0619,0.0701,0.0711,0.0749,0.0811,0.086,0.0858,0.0938,0.0969,0.0984,0.1038,0.1073,0.1096,0.1132,0.1146,0.1117,0.1141,0.1122,0.1079,0.111,0.1107,0.1105,0.1074,0.107,0.1117,0.1117,0.1117,0,0.0558,0.06,0.0708,0.071,0.0723,0.082,0.0796,0.0841,0.091,0.0937,0.0963,0.1047,0.1075,0.1092,0.1087,0.1102,0.1106,0.1099,0.1101,0.11,0.1099,0.1069,0.1065,0.1113,0.1113,0.1114,0.1114,0,0.0499,0.0518,0.0512,0.0565,0.0591,0.0585,0.066,0.0694,0.0748,0.081,0.0861,0.0933,0.0986,0.1004,0.1031,0.1044,0.104,0.109,0.1115,0.109,0.1059,0.1057,0.1107,0.1108,0.111,0.1111,0,0,0.0393,0.046,0.0454,0.0452,0.0514,0.0528,0.0535,0.0587,0.0614,0.0693,0.0729,0.0791,0.0872,0.0895,0.0959,0.0994,0.0975,0.103,0.1033,0.0989,0.0995,0.0975,0.097,0.1028,0.1029,0.1029,0.0958,0,0.0302,0.0274,0.0342,0.0292,0.0275,0.0369,0.0384,0.0447,0.0526,0.059,0.0692,0.0746,0.0816,0.0854,0.0897,0.097,0.0973,0.0987,0.1035,0.1035,0.1015,0.097,0.1019,0.096,0.0956,0.0956,0.0955,0,0.0222,0.0217,0.016,0.0187,0.0191,0.0184,0.0249,0.0274,0.0392,0.0464,0.0553,0.0649,0.0712,0.0786,0.0869,0.0873,0.0913,0.0968,0.0967,0.0982,0.1014,0.0997,0.0957,0.1106,0.0952,0.0953,0.0953,0,0.0112,0.0091,0.0047,0.0048,0.0094,0.0096,0.0123,0.0231,0.0272,0.0384,0.0427,0.0547,0.0591,0.0687,0.0779,0.0828,0.0853,0.0939,0.0946,0.0942,0.101,0.1013,0.112,0.0976,0.0976,0.0976,0.0977,0,0.0012,-0.0026,-0.001,-0.0032,-0.0073,-0.0004,0.0001,0.007,0.0169,0.0205,0.0348,0.0382,0.0574,0.0622,0.0724,0.0794,0.0797,0.0916,0.093,0.0977,0.0978,0.1135,0.1197,0.0974,0.0974,0.0975,0.0975,0,-0.0076,-0.0071,-0.0123,-0.0116,-0.0119,-0.0145,-0.0097,-0.0071,0.0026,0.0071,0.0096,0.0236,0.0319,0.0464,0.0598,0.0696,0.0862,0.0799,0.0803,0.082,0.1026,0.108,0.1141,0.1222,0.0833,0.0832,0.0832,0,-0.0109,-0.0147,-0.0192,-0.0227,-0.0227,-0.0249,-0.0241,-0.0153,-0.0121,-0.0031,-0.0025,0.0064,0.0147,0.0304,0.0505,0.0659,0.0794,0.0771,0.0904,0.1021,0.1092,0.1128,0.1196,0.0938,0.0938,0.0938,0.0938,0,-0.0172,-0.0188,-0.0222,-0.03,-0.0334,-0.0368,-0.0363,-0.0363,-0.0258,-0.0207,-0.0164,-0.01,0.0076,0.0302,0.0499,0.0607,0.0898,0.0781,0.0934,0.1197,0.1213,0.1302,0.0952,0.094,0.094,0.094,0.094,0.094,-0.0193,-0.0244,-0.0287,-0.0354,-0.0407,-0.0462,-0.0472,-0.0445,-0.0409,-0.0278,-0.0238,-0.0021,0.0212,0.0538,0.0625,0.0922,0.0919,0.1083,0.1131,0.115,0.1263,0.087,0.0866,0.0865,0.0865,0.0864,0.0864,0,-0.0213,-0.0267,-0.0332,-0.0409,-0.0463,-0.0482,-0.0515,-0.0491,-0.0449,-0.0277,-0.0147,0.0311,0.0564,0.0816,0.1142,0.1297,0.1362,0.1378,0.1493,0.1547,0.124,0.1285,0.1333,0.1333,0.1333,0.1333,0.1333,0.1332,-0.0213,-0.0289,-0.0326,-0.0421,-0.0471,-0.052,-0.0537,-0.0491,-0.0369,-0.0062,0.0312,0.0564,0.0943,0.1344,0.1641,0.1663,0.1843,0.1783,0.1866,0.1723,0.1702,0.1682,0.1743,0.1887,0.1888,0.2204,0.2207,0.221]}],[{"header":{"parameterUnit":"m.s-1","parameterCategory":2,"la1":30.2991,"la2":30.254,"lo1":-89.0895,"lo2":-89.0444,"dy":0.0017,"dx":0.0017,"nx":28,"ny":28,"refTime":"2026-02-09T03:00:00:Z","depth":"2","parameterNumber":2,"parameterNumberName":"U-component_of_CURRENTS"},"data":[0,0,0,0,0,0,0,0,0,0,0,0,0,0,0,0,0,0,0,0,0,0,0,0,0,0,0,0,0,0,0,0,0,0,0,0,0,0,0,0,0,0,0,0,0,0,0,0,0,0,0,0,0,0,0,0,0,0,-0.1904,-0.1905,0,-0.1966,-0.1967,-0.1967,-0.1957,-0.1956,-0.1955,-0.1954,-0.2022,-0.2025,-0.2028,0,0,0,0,0,0,0,0,0,0,0,0,0,-0.1821,-0.1823,-0.1904,-0.1905,-0.1906,-0.1966,-0.1967,-0.1967,-0.1957,-0.1956,-0.1954,-0.1953,-0.2021,-0.2025,-0.2028,0,0,0,0,0,0,0,0,0,0,0,0,0,-0.1867,-0.1823,-0.1904,-0.1908,-0.1909,-0.1966,-0.1967,-0.1968,-0.1957,-0.1956,-0.1954,-0.1953,-0.202,-0.2024,-0.2028,-0.2086,0,0,-0.2041,-0.2043,0,0,0,0,0,0,0,0,-0.1865,-0.187,-0.1906,-0.1908,-0.1909,-0.1952,-0.1963,-0.2008,-0.1958,-0.1939,-0.1954,-0.1952,-0.2001,-0.2007,-0.2021,-0.209,-0.2093,-0.2042,-0.2044,-0.2046,-0.2047,0,0,0,0,0,0,0,-0.1861,-0.1868,-0.1928,-0.1907,-0.1909,-0.1922,-0.1926,-0.1971,-0.1978,-0.194,-0.194,-0.1947,-0.2001,-0.2017,-0.2023,-0.2094,-0.2042,-0.2045,-0.2048,-0.205,-0.2281,-0.2284,0,0,0,0,0,0,-0.1854,-0.1865,-0.1926,-0.193,-0.1883,-0.1924,-0.1929,-0.194,-0.1977,-0.1981,-0.1949,-0.1947,-0.2011,-0.2018,-0.2025,-0.2127,-0.2046,-0.205,-0.2052,-0.2277,-0.2282,-0.2285,0,0,0,0,0,0,-0.1852,-0.1859,-0.1924,-0.1899,-0.1908,-0.1927,-0.1939,-0.1942,-0.1967,-0.1984,-0.1987,-0.1972,-0.201,-0.2019,-0.2086,-0.2128,-0.2052,-0.2056,-0.2273,-0.2279,-0.2284,-0.2311,0,0,0,0,0,0,-0.185,-0.1858,-0.1868,-0.1898,-0.1909,-0.1967,-0.1941,-0.1944,-0.1974,-0.1972,-0.2005,-0.2009,-0.2009,-0.208,-0.2091,-0.2133,-0.2059,-0.2268,-0.2275,-0.2282,-0.2306,-0.2317,-0.2326,0,0,0,0,0,-0.1846,-0.1866,-0.1868,-0.1876,-0.192,-0.1969,-0.1976,-0.1984,-0.1976,-0.1999,-0.2027,-0.2008,-0.2131,-0.2087,-0.2098,-0.2142,-0.2265,-0.2273,-0.2281,-0.2301,-0.2315,-0.2326,0,0,0,0,0,0,-0.1837,-0.1867,-0.1871,-0.1898,-0.1935,-0.1967,-0.1985,-0.1999,-0.204,-0.2036,-0.205,-0.2058,-0.214,-0.215,-0.21,-0.2236,-0.2198,-0.2209,-0.221,-0.2223,-0.2233,-0.2203,-0.2063,0,0,0,0,0,-0.1841,-0.1865,-0.1896,-0.1925,-0.1937,-0.1967,-0.1989,-0.1999,-0.2036,-0.2051,-0.2078,-0.2121,-0.2185,-0.2206,-0.226,-0.2326,-0.228,-0.2368,-0.2379,-0.2387,-0.2376,-0.2357,-0.2362,-0.2312,-0.2312,-0.2312,0,0,-0.185,-0.1868,-0.1885,-0.1926,-0.1948,-0.1988,-0.1976,-0.2014,-0.2059,-0.2055,-0.2124,-0.2164,-0.2218,-0.2294,-0.2331,-0.23,-0.2376,-0.2397,-0.2403,-0.2388,-0.2366,-0.237,-0.2373,-0.2318,-0.2317,-0.2316,0,0,-0.1876,-0.1892,-0.1914,-0.1946,-0.1983,-0.2009,-0.2026,-0.2068,-0.2093,-0.2171,-0.2188,-0.2253,-0.2337,-0.2378,-0.2413,-0.2521,-0.2442,-0.2543,-0.2553,-0.2535,-0.2537,-0.2538,-0.2457,-0.2451,-0.2533,-0.2533,-0.2533,0,-0.1882,-0.1917,-0.1933,-0.1963,-0.1991,-0.2023,-0.206,-0.2107,-0.2172,-0.2188,-0.2198,-0.2327,-0.2382,-0.2465,-0.2509,-0.2541,-0.2481,-0.249,-0.254,-0.2541,-0.2541,-0.2459,-0.2451,-0.2535,-0.2535,-0.2535,-0.2535,0,-0.193,-0.1954,-0.1973,-0.2022,-0.2056,-0.2099,-0.2151,-0.2193,-0.223,-0.226,-0.2346,-0.242,-0.2482,-0.253,-0.2556,-0.2605,-0.2543,-0.2558,-0.2487,-0.2546,-0.2457,-0.2449,-0.2539,-0.2538,-0.2537,-0.2537,0,0,-0.1943,-0.1995,-0.2003,-0.2015,-0.2087,-0.2114,-0.2191,-0.2249,-0.2275,-0.2351,-0.2374,-0.2527,-0.2531,-0.2575,-0.2615,-0.2611,-0.2584,-0.2578,-0.2576,-0.2458,-0.247,-0.2398,-0.2381,-0.258,-0.2579,-0.2579,-0.2393,0,-0.1974,-0.2015,-0.2055,-0.211,-0.212,-0.2175,-0.2242,-0.2294,-0.2338,-0.2368,-0.2434,-0.2496,-0.2561,-0.2586,-0.2601,-0.2591,-0.2567,-0.2628,-0.2466,-0.246,-0.2357,-0.2373,-0.2223,-0.2043,-0.2384,-0.2382,-0.2381,0,-0.2003,-0.2014,-0.2063,-0.2105,-0.2121,-0.2182,-0.2241,-0.2305,-0.2356,-0.2383,-0.2429,-0.2461,-0.251,-0.2547,-0.253,-0.2549,-0.2519,-0.2496,-0.2488,-0.2403,-0.2374,-0.2051,-0.2014,-0.2366,-0.2367,-0.2369,-0.237,0,-0.1957,-0.202,-0.2052,-0.2075,-0.2143,-0.2184,-0.2236,-0.2299,-0.2325,-0.2377,-0.2372,-0.2428,-0.2445,-0.2431,-0.2439,-0.246,-0.2356,-0.2383,-0.2278,-0.2268,-0.2103,-0.2082,-0.235,-0.235,-0.2351,-0.2351,-0.2352,0,-0.1967,-0.198,-0.2035,-0.2046,-0.2082,-0.2148,-0.2193,-0.2249,-0.2294,-0.2303,-0.2375,-0.2378,-0.2416,-0.2378,-0.2374,-0.2285,-0.2312,-0.226,-0.2224,-0.211,-0.2092,-0.236,-0.2364,-0.2344,-0.2346,-0.2347,-0.2348,0,-0.1932,-0.1964,-0.1979,-0.2042,-0.2056,-0.2087,-0.2152,-0.2163,-0.2237,-0.2238,-0.2251,-0.23,-0.2262,-0.2258,-0.2211,-0.2193,-0.2128,-0.2095,-0.1931,-0.1882,-0.2049,-0.2057,-0.1919,-0.1915,-0.1912,-0.1909,-0.1906,0,-0.1927,-0.1919,-0.1959,-0.1939,-0.1978,-0.2017,-0.2026,-0.2119,-0.2132,-0.2194,-0.2176,-0.2161,-0.2127,-0.2009,-0.1968,-0.1873,-0.2002,-0.17,-0.176,-0.2029,-0.2009,-0.2022,-0.2035,-0.1525,-0.1519,-0.1515,-0.1512,0,-0.1875,-0.1891,-0.1905,-0.1863,-0.1865,-0.1873,-0.1909,-0.191,-0.2012,-0.2018,-0.2012,-0.1983,-0.1899,-0.1745,-0.1656,-0.161,-0.1705,-0.1609,-0.1909,-0.1687,-0.1651,-0.1634,-0.166,-0.1473,-0.1477,-0.148,-0.1482,-0.1483,-0.1845,-0.1819,-0.1801,-0.1773,-0.1741,-0.1711,-0.1686,-0.1727,-0.1727,-0.1726,-0.1799,-0.171,-0.1679,-0.1454,-0.1364,-0.1303,-0.1436,-0.139,-0.1405,-0.1425,-0.1443,-0.1407,-0.1181,-0.1183,-0.1185,-0.1186,-0.1188,0,-0.1772,-0.1726,-0.168,-0.162,-0.1532,-0.1576,-0.1569,-0.1527,-0.1484,-0.1509,-0.1484,-0.1318,-0.1194,-0.1175,-0.1012,-0.0978,-0.0994,-0.0946,-0.0974,-0.1011,-0.1045,-0.1048,-0.0678,-0.0676,-0.0675,-0.0674,0,0,-0.1711,-0.1618,-0.1577,-0.1402,-0.1362,-0.1243,-0.1217,-0.1183,-0.1172,-0.1107,-0.107,-0.1135,-0.1137,-0.0915,-0.0852,-0.0736,-0.0871,-0.0697,-0.1103,-0.1173,-0.1205,-0.1293,-0.1337,0,0,0,0,0]},{"header":{"parameterUnit":"m.s-1","parameterCategory":2,"la1":30.2991,"la2":30.254,"lo1":-89.0895,"lo2":-89.0444,"dy":0.0017,"dx":0.0017,"nx":28,"ny":28,"refTime":"2026-02-09T03:00:00:Z","depth":"2","parameterNumber":3,"parameterNumberName":"V-component_of_CURRENTS"},"data":[0,0,0,0,0,0,0,0,0,0,0,0,0,0,0,0,0,0,0,0,0,0,0,0,0,0,0,0,0,0,0,0,0,0,0,0,0,0,0,0,0,0,0,0,0,0,0,0,0,0,0,0,0,0,0,0,0,0,-0.0441,-0.0441,0,-0.0387,-0.0386,-0.0386,-0.0343,-0.0342,-0.0342,-0.0342,-0.0218,-0.0215,-0.0212,0,0,0,0,0,0,0,0,0,0,0,0,0,-0.0425,-0.0426,-0.0441,-0.0441,-0.044,-0.0387,-0.0386,-0.0386,-0.0343,-0.0342,-0.0342,-0.0342,-0.0219,-0.0215,-0.0212,0,0,0,0,0,0,0,0,0,0,0,0,0,-0.0407,-0.0426,-0.0442,-0.0413,-0.041,-0.0387,-0.0386,-0.0385,-0.0343,-0.0342,-0.0342,-0.0341,-0.022,-0.0216,-0.0211,-0.0194,0,0,-0.0198,-0.0196,0,0,0,0,0,0,0,0,-0.0408,-0.0408,-0.0418,-0.0415,-0.0412,-0.0372,-0.0335,-0.0318,-0.0343,-0.0368,-0.0342,-0.0341,-0.0264,-0.0256,-0.0247,-0.0188,-0.0183,-0.0197,-0.0195,-0.0193,-0.0191,0,0,0,0,0,0,0,-0.041,-0.0409,-0.0419,-0.0417,-0.0414,-0.0375,-0.0372,-0.0332,-0.0317,-0.0365,-0.0362,-0.0358,-0.0261,-0.0251,-0.0243,-0.0181,-0.0197,-0.0194,-0.0191,-0.0189,-0.005,-0.0049,0,0,0,0,0,0,-0.0423,-0.0411,-0.0421,-0.0418,-0.041,-0.0376,-0.0373,-0.0385,-0.0319,-0.031,-0.0358,-0.0356,-0.0259,-0.0248,-0.0239,-0.0203,-0.0193,-0.0189,-0.0186,-0.0051,-0.005,-0.0049,0,0,0,0,0,0,-0.0423,-0.0425,-0.0423,-0.0412,-0.0409,-0.0377,-0.039,-0.0384,-0.0369,-0.0315,-0.0303,-0.035,-0.0258,-0.0245,-0.02,-0.0198,-0.0187,-0.0183,-0.0052,-0.0051,-0.0049,-0.0138,0,0,0,0,0,0,-0.0424,-0.0426,-0.0434,-0.0414,-0.0411,-0.0415,-0.039,-0.0383,-0.0368,-0.0364,-0.0304,-0.0292,-0.0257,-0.0207,-0.0196,-0.0191,-0.0179,-0.0054,-0.0052,-0.005,-0.0136,-0.014,-0.0143,0,0,0,0,0,-0.0423,-0.0441,-0.0435,-0.0435,-0.0425,-0.0415,-0.041,-0.0383,-0.0368,-0.0367,-0.0323,-0.0294,-0.0186,-0.0203,-0.019,-0.0185,-0.0055,-0.0052,-0.005,-0.0135,-0.0139,-0.0142,0,0,0,0,0,0,-0.0436,-0.0437,-0.043,-0.0447,-0.0433,-0.0408,-0.0405,-0.0386,-0.0351,-0.0345,-0.029,-0.0275,-0.0227,-0.019,-0.0211,-0.0133,-0.0112,-0.0107,-0.018,-0.0184,-0.0187,-0.0205,-0.0175,0,0,0,0,0,-0.0445,-0.0458,-0.0447,-0.0458,-0.0457,-0.0431,-0.0421,-0.0406,-0.0375,-0.036,-0.0317,-0.0262,-0.0208,-0.0187,-0.0132,-0.0104,-0.0062,-0.0084,-0.0088,-0.0091,-0.0093,-0.0015,-0.0013,-0.0041,-0.0041,-0.0041,0,0,-0.0453,-0.0453,-0.0461,-0.0461,-0.0451,-0.0453,-0.0424,-0.0418,-0.0411,-0.035,-0.0324,-0.0268,-0.0198,-0.0159,-0.0135,-0.0132,-0.0065,-0.0088,-0.0092,-0.0092,-0.0013,-0.001,-0.0008,-0.004,-0.004,-0.004,0,0,-0.0479,-0.048,-0.0501,-0.0496,-0.0487,-0.0467,-0.0468,-0.0445,-0.0427,-0.0394,-0.0342,-0.0286,-0.0217,-0.0169,-0.0134,-0.0118,-0.0076,-0.01,-0.0145,-0.007,-0.0068,-0.0065,-0.0039,-0.0033,-0.0113,-0.0113,-0.0113,0,-0.0487,-0.0516,-0.0502,-0.0519,-0.0516,-0.0479,-0.0493,-0.0471,-0.0431,-0.0416,-0.0392,-0.0268,-0.0216,-0.0158,-0.016,-0.0126,-0.0097,-0.0146,-0.0078,-0.0074,-0.007,-0.0043,-0.0035,-0.0117,-0.0117,-0.0116,-0.0116,0,-0.0531,-0.0549,-0.0561,-0.057,-0.0561,-0.0569,-0.0541,-0.0524,-0.0489,-0.046,-0.0391,-0.031,-0.0234,-0.0211,-0.0187,-0.0134,-0.0129,-0.0087,-0.008,-0.0073,-0.0044,-0.0035,-0.0123,-0.0121,-0.012,-0.0119,0,0,-0.0566,-0.0589,-0.0593,-0.0606,-0.0591,-0.059,-0.0578,-0.0556,-0.054,-0.0481,-0.0448,-0.0355,-0.0304,-0.0259,-0.0206,-0.0161,-0.0121,-0.0134,-0.0128,-0.013,0.0002,0.0035,0.0049,-0.0075,-0.0073,-0.0072,-0.0003,0,-0.0604,-0.0652,-0.0643,-0.0669,-0.0691,-0.0653,-0.0639,-0.0609,-0.0564,-0.0522,-0.0434,-0.0367,-0.0323,-0.0281,-0.0228,-0.0145,-0.0096,-0.0146,0.0016,0.002,0.0032,0.0063,0.0051,0.0115,0.0007,0.0009,0.001,0,-0.0656,-0.0678,-0.0722,-0.0724,-0.0727,-0.0726,-0.0693,-0.0675,-0.061,-0.057,-0.0493,-0.0418,-0.0342,-0.0288,-0.0147,-0.0188,-0.0099,-0.0035,-0.0029,0.0042,0.0073,0.0102,0.0137,0.0026,0.0025,0.0023,0.0022,0,-0.0701,-0.0732,-0.0766,-0.0772,-0.0765,-0.0765,-0.0747,-0.0695,-0.0674,-0.0596,-0.0558,-0.045,-0.0374,-0.026,-0.012,-0.0137,0.0037,0.0045,0.0163,0.0164,0.021,0.0213,0.0175,0.0175,0.0175,0.0175,0.0175,0,-0.0757,-0.0783,-0.0792,-0.0815,-0.0834,-0.0807,-0.0802,-0.0769,-0.0709,-0.0672,-0.0579,-0.0504,-0.0358,-0.0237,-0.013,0.0043,0.0049,0.0161,0.0199,0.0176,0.0176,0.0151,0.0148,0.0177,0.0177,0.0176,0.0176,0,-0.0813,-0.0821,-0.0859,-0.0863,-0.0865,-0.0877,-0.0851,-0.0838,-0.0773,-0.0719,-0.069,-0.0547,-0.039,-0.024,-0.0044,0.0049,0.02,0.0276,0.0213,0.0243,0.0263,0.0254,0.0375,0.0377,0.0378,0.038,0.0381,0,-0.085,-0.088,-0.0904,-0.0922,-0.0928,-0.0936,-0.0935,-0.0881,-0.0858,-0.0728,-0.07,-0.0534,-0.0394,-0.012,0.0072,0.0268,0.028,0.0378,0.0364,0.0265,0.029,0.0279,0.0268,0.0371,0.0372,0.0372,0.0373,0,-0.0913,-0.0918,-0.0946,-0.0985,-0.1,-0.1008,-0.0999,-0.0991,-0.0902,-0.0831,-0.0691,-0.0568,-0.029,-0.006,0.02,0.0314,0.033,0.0402,0.0357,0.0324,0.0269,0.0291,0.0279,0.0381,0.038,0.0379,0.0379,0.0379,-0.0951,-0.098,-0.1011,-0.1043,-0.106,-0.1065,-0.1065,-0.1028,-0.0969,-0.0833,-0.0702,-0.0493,-0.0261,0.0105,0.0289,0.0441,0.043,0.0468,0.0462,0.0456,0.0446,0.0398,0.0528,0.0528,0.0529,0.0529,0.0529,0,-0.0992,-0.1022,-0.1063,-0.1091,-0.1107,-0.1102,-0.1091,-0.1054,-0.0979,-0.0822,-0.0661,-0.038,-0.011,0.0114,0.0369,0.0524,0.0498,0.054,0.0479,0.0472,0.0465,0.0452,0.0539,0.0539,0.0539,0.0539,0,0,-0.1012,-0.1056,-0.1072,-0.1113,-0.1132,-0.1135,-0.1125,-0.1049,-0.0936,-0.0758,-0.0595,-0.0376,-0.0092,0.009,0.0292,0.0422,0.04,0.0428,0.0408,0.0307,0.0298,0.0417,0.0389,0,0,0,0,0]}],[{"header":{"parameterUnit":"m.s-1","parameterCategory":2,"la1":30.2991,"la2":30.254,"lo1":-89.0895,"lo2":-89.0444,"dy":0.0017,"dx":0.0017,"nx":28,"ny":28,"refTime":"2026-02-09T03:00:00:Z","depth":"4","parameterNumber":2,"parameterNumberName":"U-component_of_CURRENTS"},"data":[0,0,0,0,0,0,0,0,0,0,0,0,0,0,0,0,0,0,0,0,0,0,0,0,0,0,0,0,0,0,0,0,0,0,0,0,0,0,0,0,0,0,0,0,0,0,0,0,0,0,0,0,0,0,0,0,0,0,-0.1265,-0.1266,0,-0.1339,-0.134,-0.1341,-0.1376,-0.1376,-0.1376,-0.1376,-0.1412,-0.1412,-0.1413,0,0,0,0,0,0,0,0,0,0,0,0,0,-0.1177,-0.1178,-0.1265,-0.1266,-0.1268,-0.1339,-0.134,-0.1341,-0.1376,-0.1376,-0.1376,-0.1376,-0.1411,-0.1412,-0.1413,0,0,0,0,0,0,0,0,0,0,0,0,0,-0.1228,-0.1179,-0.1265,-0.1295,-0.1298,-0.1339,-0.134,-0.1341,-0.1376,-0.1376,-0.1376,-0.1376,-0.1411,-0.1412,-0.1413,-0.1417,0,0,-0.1417,-0.1418,0,0,0,0,0,0,0,0,-0.1225,-0.1231,-0.1289,-0.1293,-0.1297,-0.135,-0.1322,-0.1365,-0.1376,-0.1345,-0.1376,-0.1376,-0.1388,-0.1391,-0.1403,-0.1419,-0.1421,-0.1417,-0.1418,-0.1419,-0.1419,0,0,0,0,0,0,0,-0.1221,-0.1228,-0.1293,-0.1291,-0.1295,-0.1312,-0.1319,-0.1331,-0.1363,-0.1347,-0.1351,-0.1361,-0.139,-0.1402,-0.1404,-0.1421,-0.1417,-0.1418,-0.1419,-0.142,-0.1512,-0.1514,0,0,0,0,0,0,-0.1215,-0.1225,-0.1291,-0.1295,-0.1263,-0.1314,-0.1322,-0.1331,-0.1363,-0.1369,-0.1361,-0.1363,-0.14,-0.1403,-0.1405,-0.1463,-0.1419,-0.142,-0.142,-0.151,-0.1512,-0.1514,0,0,0,0,0,0,-0.1212,-0.122,-0.1288,-0.1263,-0.1273,-0.1315,-0.1326,-0.1333,-0.1367,-0.1375,-0.1379,-0.1391,-0.14,-0.1404,-0.1442,-0.1463,-0.142,-0.1421,-0.1508,-0.1511,-0.1513,-0.1546,0,0,0,0,0,0,-0.1209,-0.1218,-0.1232,-0.1263,-0.1274,-0.1325,-0.1326,-0.1334,-0.1373,-0.1377,-0.1402,-0.1404,-0.14,-0.144,-0.1443,-0.1464,-0.1422,-0.1506,-0.1509,-0.1512,-0.1542,-0.1549,-0.1554,0,0,0,0,0,-0.1206,-0.1218,-0.1232,-0.1241,-0.1289,-0.1327,-0.1335,-0.1363,-0.1375,-0.1394,-0.1417,-0.1404,-0.1462,-0.1443,-0.1446,-0.1467,-0.1505,-0.1509,-0.1512,-0.154,-0.1548,-0.1554,0,0,0,0,0,0,-0.1186,-0.1224,-0.124,-0.1263,-0.1301,-0.1334,-0.1355,-0.1378,-0.1413,-0.142,-0.1425,-0.143,-0.1472,-0.147,-0.1448,-0.1506,-0.1482,-0.1486,-0.1502,-0.1509,-0.1515,-0.1509,-0.1423,0,0,0,0,0,-0.1189,-0.121,-0.1249,-0.1272,-0.1289,-0.1328,-0.1351,-0.1375,-0.1405,-0.1422,-0.1444,-0.1466,-0.1487,-0.1499,-0.1518,-0.1547,-0.1538,-0.1565,-0.1571,-0.1576,-0.1576,-0.1583,-0.1588,-0.1527,-0.1527,-0.1527,0,0,-0.1189,-0.1213,-0.1226,-0.1271,-0.1299,-0.1333,-0.1342,-0.1384,-0.1418,-0.1419,-0.1473,-0.1491,-0.1502,-0.1538,-0.1556,-0.154,-0.1592,-0.1581,-0.1585,-0.1582,-0.1587,-0.1593,-0.1598,-0.1529,-0.1529,-0.1529,0,0,-0.1195,-0.122,-0.1241,-0.1273,-0.1323,-0.1349,-0.1367,-0.1417,-0.1445,-0.1496,-0.1507,-0.1539,-0.1577,-0.1587,-0.1595,-0.1647,-0.1627,-0.1659,-0.168,-0.1687,-0.1691,-0.1695,-0.1696,-0.1699,-0.1658,-0.1658,-0.1658,0,-0.1197,-0.1226,-0.1255,-0.1285,-0.1315,-0.1359,-0.1393,-0.1427,-0.1488,-0.1505,-0.1519,-0.1579,-0.1596,-0.1623,-0.1652,-0.1658,-0.1658,-0.1646,-0.1692,-0.1696,-0.1699,-0.1699,-0.1702,-0.166,-0.166,-0.166,-0.166,0,-0.1212,-0.1248,-0.1263,-0.1316,-0.1353,-0.139,-0.144,-0.1479,-0.1519,-0.1547,-0.1596,-0.1624,-0.1652,-0.1671,-0.1682,-0.1717,-0.1709,-0.1699,-0.1666,-0.1706,-0.1705,-0.1708,-0.1663,-0.1662,-0.1662,-0.1661,0,0,-0.1183,-0.126,-0.127,-0.1301,-0.1374,-0.1403,-0.1458,-0.1509,-0.1537,-0.1592,-0.1627,-0.1676,-0.1689,-0.17,-0.1716,-0.1733,-0.1769,-0.1735,-0.1735,-0.1724,-0.1785,-0.1648,-0.1638,-0.1767,-0.1768,-0.1768,-0.1775,0,-0.1191,-0.125,-0.129,-0.1353,-0.1384,-0.1439,-0.1483,-0.1534,-0.1578,-0.1623,-0.1649,-0.1693,-0.1699,-0.1724,-0.1741,-0.177,-0.1779,-0.1768,-0.1758,-0.1758,-0.1621,-0.1637,-0.1771,-0.1777,-0.1778,-0.1778,-0.1778,0,-0.1186,-0.1231,-0.1292,-0.1368,-0.1387,-0.1433,-0.1501,-0.1546,-0.1604,-0.1638,-0.1671,-0.17,-0.1745,-0.1747,-0.1782,-0.1778,-0.1787,-0.1798,-0.1798,-0.1657,-0.1626,-0.1729,-0.1783,-0.1783,-0.1782,-0.1782,-0.1782,0,-0.1138,-0.1226,-0.1277,-0.1305,-0.1398,-0.1433,-0.1483,-0.1547,-0.1585,-0.165,-0.1687,-0.1721,-0.1761,-0.1773,-0.1796,-0.1802,-0.1823,-0.1824,-0.17,-0.1691,-0.1798,-0.1794,-0.1836,-0.1836,-0.1836,-0.1836,-0.1836,0,-0.111,-0.1151,-0.1262,-0.1287,-0.1338,-0.1414,-0.1465,-0.1513,-0.159,-0.1631,-0.1691,-0.1722,-0.1775,-0.1793,-0.1799,-0.1744,-0.1815,-0.1698,-0.1679,-0.1814,-0.1812,-0.18,-0.1796,-0.1837,-0.1837,-0.1837,-0.1837,0,-0.1036,-0.1113,-0.1171,-0.1281,-0.1315,-0.1349,-0.1453,-0.1486,-0.1571,-0.1631,-0.166,-0.1739,-0.175,-0.1767,-0.179,-0.1735,-0.1706,-0.1668,-0.1807,-0.1797,-0.1575,-0.1573,-0.1532,-0.1527,-0.1523,-0.152,-0.1517,0,-0.1003,-0.1031,-0.1148,-0.1183,-0.1235,-0.1304,-0.1349,-0.1455,-0.15,-0.1623,-0.1646,-0.1697,-0.1727,-0.1629,-0.1666,-0.1622,-0.1606,-0.1582,-0.1581,-0.1556,-0.1542,-0.1547,-0.155,-0.151,-0.1509,-0.1508,-0.1507,0,-0.0936,-0.0988,-0.1032,-0.11,-0.1161,-0.1219,-0.1302,-0.1328,-0.1452,-0.1553,-0.1573,-0.1567,-0.1567,-0.1547,-0.1508,-0.1487,-0.1592,-0.1539,-0.1548,-0.1547,-0.1529,-0.152,-0.1528,-0.1493,-0.1495,-0.1496,-0.1497,0,-0.0878,-0.0889,-0.0955,-0.0999,-0.1072,-0.1116,-0.1172,-0.1234,-0.1288,-0.1442,-0.1443,-0.1489,-0.1558,-0.1477,-0.1452,-0.1398,-0.1385,-0.1348,-0.1367,-0.1383,-0.1326,-0.1281,-0.1143,0,0,0,0,0,-0.0816,-0.082,-0.0855,-0.0901,-0.097,-0.1014,-0.1134,-0.1202,-0.1335,-0.1309,-0.1372,-0.1362,-0.1323,-0.1346,-0.1256,-0.138,-0.1387,-0.1271,-0.1354,-0.1413,-0.143,-0.1374,0,0,0,0,0,0,-0.0766,-0.0801,-0.0814,-0.0809,-0.0825,-0.0893,-0.0966,-0.1064,-0.1059,-0.1193,-0.1168,-0.1264,-0.1232,-0.1333,-0.1218,-0.1224,-0.1245,-0.1304,-0.13,-0.1404,-0.1419,-0.1432,-0.1381,0,0,0,0,0]},{"header":{"parameterUnit":"m.s-1","parameterCategory":2,"la1":30.2991,"la2":30.254,"lo1":-89.0895,"lo2":-89.0444,"dy":0.0017,"dx":0.0017,"nx":28,"ny":28,"refTime":"2026-02-09T03:00:00:Z","depth":"4","parameterNumber":3,"parameterNumberName":"V-component_of_CURRENTS"},"data":[0,0,0,0,0,0,0,0,0,0,0,0,0,0,0,0,0,0,0,0,0,0,0,0,0,0,0,0,0,0,0,0,0,0,0,0,0,0,0,0,0,0,0,0,0,0,0,0,0,0,0,0,0,0,0,0,0,0,-0.0366,-0.0365,0,-0.0341,-0.0341,-0.034,-0.0317,-0.0316,-0.0316,-0.0316,-0.0251,-0.025,-0.0248,0,0,0,0,0,0,0,0,0,0,0,0,0,-0.0336,-0.0337,-0.0366,-0.0365,-0.0365,-0.0341,-0.0341,-0.034,-0.0317,-0.0316,-0.0316,-0.0316,-0.0251,-0.025,-0.0248,0,0,0,0,0,0,0,0,0,0,0,0,0,-0.0334,-0.0338,-0.0366,-0.035,-0.0349,-0.0341,-0.0341,-0.034,-0.0317,-0.0316,-0.0316,-0.0315,-0.0252,-0.025,-0.0248,-0.0243,0,0,-0.0241,-0.024,0,0,0,0,0,0,0,0,-0.0334,-0.0335,-0.0353,-0.0351,-0.035,-0.0331,-0.0307,-0.0306,-0.0317,-0.0329,-0.0316,-0.0315,-0.0275,-0.0271,-0.0267,-0.024,-0.0237,-0.0241,-0.024,-0.0239,-0.0238,0,0,0,0,0,0,0,-0.0335,-0.0336,-0.0356,-0.0353,-0.0351,-0.0326,-0.0325,-0.0306,-0.0304,-0.0328,-0.0326,-0.0324,-0.0273,-0.0269,-0.0265,-0.0236,-0.0241,-0.0239,-0.0238,-0.0237,-0.0219,-0.0219,0,0,0,0,0,0,-0.0342,-0.0337,-0.0356,-0.0355,-0.0341,-0.0327,-0.0326,-0.0338,-0.0305,-0.0299,-0.0324,-0.0323,-0.0273,-0.0268,-0.0263,-0.0278,-0.0239,-0.0237,-0.0235,-0.0218,-0.0219,-0.022,0,0,0,0,0,0,-0.0341,-0.0344,-0.0357,-0.0344,-0.0344,-0.0328,-0.0341,-0.0337,-0.0336,-0.0302,-0.0296,-0.0326,-0.0273,-0.0266,-0.0254,-0.0274,-0.0236,-0.0234,-0.0217,-0.0218,-0.0219,-0.0292,0,0,0,0,0,0,-0.0341,-0.0345,-0.0356,-0.0345,-0.0345,-0.036,-0.0341,-0.0337,-0.0335,-0.0333,-0.0302,-0.0295,-0.0272,-0.0258,-0.0252,-0.027,-0.0232,-0.0216,-0.0217,-0.0219,-0.0289,-0.0296,-0.0302,0,0,0,0,0,-0.034,-0.036,-0.0357,-0.0359,-0.0361,-0.0361,-0.0359,-0.0344,-0.0335,-0.034,-0.0321,-0.0296,-0.0264,-0.0257,-0.025,-0.0268,-0.0215,-0.0217,-0.0219,-0.0286,-0.0294,-0.0302,0,0,0,0,0,0,-0.0352,-0.0359,-0.0355,-0.0376,-0.0371,-0.0357,-0.0361,-0.035,-0.0339,-0.0337,-0.0304,-0.0296,-0.0296,-0.027,-0.0264,-0.0267,-0.0236,-0.0237,-0.029,-0.0298,-0.0304,-0.0313,-0.023,0,0,0,0,0,-0.0361,-0.0379,-0.0374,-0.039,-0.0391,-0.0377,-0.0374,-0.0367,-0.0354,-0.0349,-0.0328,-0.0308,-0.0299,-0.0289,-0.0274,-0.0271,-0.0221,-0.0279,-0.0286,-0.0291,-0.0295,-0.0245,-0.0248,-0.0226,-0.0226,-0.0226,0,0,-0.0371,-0.0375,-0.0386,-0.0394,-0.0389,-0.0399,-0.0375,-0.0379,-0.0388,-0.0343,-0.0349,-0.033,-0.0304,-0.0307,-0.0304,-0.0287,-0.0266,-0.0294,-0.0299,-0.0299,-0.0248,-0.0249,-0.0251,-0.0227,-0.0227,-0.0227,0,0,-0.0395,-0.0404,-0.0424,-0.0425,-0.0424,-0.0418,-0.0422,-0.0413,-0.0411,-0.0412,-0.0389,-0.0382,-0.036,-0.035,-0.0341,-0.0373,-0.0305,-0.0368,-0.0405,-0.0358,-0.0359,-0.036,-0.0276,-0.0269,-0.0368,-0.0369,-0.0369,0,-0.0404,-0.0431,-0.0427,-0.0443,-0.0449,-0.0431,-0.0448,-0.0447,-0.0435,-0.0434,-0.0423,-0.04,-0.0383,-0.0385,-0.0404,-0.0389,-0.0334,-0.0379,-0.0366,-0.0365,-0.0365,-0.0279,-0.027,-0.0372,-0.0372,-0.0372,-0.0371,0,-0.0439,-0.046,-0.0471,-0.049,-0.0495,-0.0508,-0.0506,-0.051,-0.0503,-0.0494,-0.0494,-0.0471,-0.0453,-0.0455,-0.0443,-0.0438,-0.039,-0.0382,-0.0346,-0.0371,-0.0279,-0.0268,-0.0378,-0.0376,-0.0375,-0.0374,0,0,-0.0461,-0.0491,-0.0496,-0.0512,-0.0522,-0.0531,-0.055,-0.0557,-0.056,-0.0553,-0.0548,-0.0555,-0.0531,-0.052,-0.05,-0.0472,-0.0423,-0.0432,-0.0427,-0.0348,-0.0283,-0.0275,-0.0261,-0.0408,-0.0408,-0.0407,-0.0212,0,-0.0487,-0.053,-0.0537,-0.0574,-0.0595,-0.059,-0.0606,-0.0609,-0.0601,-0.0589,-0.0571,-0.0558,-0.0558,-0.0545,-0.0523,-0.0446,-0.0401,-0.0474,-0.0271,-0.0264,-0.0254,-0.0252,-0.0404,-0.0204,-0.0201,-0.0199,-0.0198,0,-0.0517,-0.0543,-0.0588,-0.0617,-0.0624,-0.0645,-0.0659,-0.0669,-0.065,-0.0639,-0.0624,-0.0591,-0.0558,-0.0549,-0.0431,-0.0473,-0.0389,-0.0327,-0.0318,-0.028,-0.0238,-0.0178,-0.0177,-0.0179,-0.018,-0.0182,-0.0183,0,-0.0534,-0.0576,-0.0616,-0.0628,-0.0657,-0.0677,-0.0689,-0.0686,-0.0687,-0.0661,-0.0639,-0.0597,-0.055,-0.0469,-0.0357,-0.0382,-0.02,-0.0208,-0.0114,-0.0109,-0.0141,-0.0142,-0.0116,-0.0116,-0.0117,-0.0117,-0.0118,0,-0.0558,-0.059,-0.063,-0.0654,-0.0695,-0.0703,-0.0729,-0.0731,-0.0713,-0.0698,-0.0663,-0.062,-0.0529,-0.0419,-0.0332,-0.0181,-0.017,-0.0112,-0.0067,-0.0172,-0.018,-0.013,-0.0134,-0.011,-0.0112,-0.0113,-0.0114,0,-0.0572,-0.0599,-0.0645,-0.0689,-0.0708,-0.0736,-0.076,-0.0768,-0.0744,-0.0716,-0.0701,-0.061,-0.0468,-0.0354,-0.0184,-0.0131,0.0001,0.0056,-0.0029,0.0007,0.0062,0.0051,0.0183,0.0185,0.0186,0.0188,0.0189,0,-0.0583,-0.0609,-0.0674,-0.0707,-0.0734,-0.0773,-0.0796,-0.0792,-0.0787,-0.0703,-0.068,-0.0538,-0.0467,-0.0196,-0.0101,0.0092,0.0097,0.0176,0.0067,0.0058,0.0089,0.0076,0.0064,0.0191,0.0191,0.0192,0.0192,0,-0.0599,-0.0625,-0.0663,-0.0731,-0.0774,-0.0812,-0.0837,-0.0829,-0.0796,-0.0768,-0.0629,-0.05,-0.0327,-0.017,-0.0011,0.0109,0.0118,0.0191,0.0188,0.0086,0.0069,0.0095,0.0082,0.0197,0.0196,0.0196,0.0196,0,-0.0605,-0.0635,-0.0688,-0.0742,-0.0802,-0.0836,-0.0846,-0.0812,-0.0789,-0.0689,-0.0633,-0.0456,-0.035,-0.0155,-0.0015,0.0107,0.0112,0.0122,0.0122,0.0118,0.0008,-0.0029,0.0116,0,0,0,0,0,-0.0606,-0.0642,-0.0697,-0.0756,-0.0815,-0.0849,-0.0868,-0.0861,-0.0817,-0.0717,-0.0671,-0.0507,-0.0278,-0.0176,-0.0049,-0.0026,0.0106,0.0121,0.0109,0.0225,0.0219,0.0097,0,0,0,0,0,0,-0.0606,-0.0662,-0.0691,-0.0758,-0.08,-0.0856,-0.0871,-0.0841,-0.0776,-0.0708,-0.0579,-0.0493,-0.0272,-0.0343,-0.0048,-0.0012,-0.0008,0.0233,0.0235,0.0228,0.0223,0.0218,0.0091,0,0,0,0,0]}]]